When you browse on this site, cookies collect data to enhance your experience and personalize the content and advertising you see.
Visit our Privacy Policy to learn more. By continuing to use the site, you agree to this use of cookies and data.
  • In Deutschland
  • Länderverzeichnis
  • Für 7 Tage
  • Wassertemperatur
  • Wetterkarte
  • Widgets
  • user-avatar
    Anmelden

    Stündliche Wetter Morpeth

    Heute, 1 Juni, Montag

    Zeit Temperatur Niederschläge Wind Luftdruck Luftfeuchtigkeit
    00:00 +10°C° 0 mm 2 m/S 765 mmHg 86%
    01:00 +11°C° 0 mm 1 m/S 765 mmHg 85%
    02:00 +10°C° 0 mm 1 m/S 765 mmHg 85%
    03:00 +10°C° 0 mm 1 m/S 764 mmHg 85%
    04:00 +10°C° 0 mm 0 m/S 765 mmHg 83%
    05:00 +11°C° 0 mm 0 m/S 765 mmHg 80%
    06:00 +13°C° 0 mm 0 m/S 765 mmHg 79%
    07:00 +15°C° 0 mm 1 m/S 765 mmHg 73%
    08:00 +17°C° 0 mm 2 m/S 765 mmHg 66%
    09:00 +18°C° 0 mm 2 m/S 765 mmHg 59%
    10:00 +18°C° 0 mm 3 m/S 765 mmHg 57%
    11:00 +19°C° 0 mm 3 m/S 765 mmHg 55%
    12:00 +19°C° 0 mm 4 m/S 765 mmHg 53%
    13:00 +19°C° 0 mm 4 m/S 765 mmHg 55%
    14:00 +19°C° 0 mm 4 m/S 764 mmHg 58%
    15:00 +19°C° 0 mm 3 m/S 764 mmHg 60%
    16:00 +18°C° 0 mm 3 m/S 764 mmHg 63%
    17:00 +17°C° 0 mm 3 m/S 764 mmHg 66%
    18:00 +17°C° 0 mm 3 m/S 764 mmHg 69%
    19:00 +15°C° 0 mm 2 m/S 764 mmHg 72%
    20:00 +13°C° 0 mm 2 m/S 764 mmHg 74%
    21:00 +12°C° 0 mm 1 m/S 764 mmHg 77%
    22:00 +11°C° 0 mm 1 m/S 764 mmHg 76%
    23:00 +11°C° 0 mm 1 m/S 764 mmHg 75%

    Morgen, 2 Juni, Dienstag

    Zeit Temperatur Niederschläge Wind Luftdruck Luftfeuchtigkeit
    00:00 +11°C° 0 mm 1 m/S 763 mmHg 74%
    01:00 +11°C° 0 mm 1 m/S 763 mmHg 72%
    02:00 +11°C° 0 mm 1 m/S 763 mmHg 70%
    03:00 +11°C° 0 mm 1 m/S 762 mmHg 68%
    04:00 +12°C° 0 mm 1 m/S 762 mmHg 67%
    05:00 +13°C° 0 mm 1 m/S 762 mmHg 66%
    06:00 +14°C° 0 mm 1 m/S 762 mmHg 65%
    07:00 +15°C° 0 mm 1 m/S 761 mmHg 61%
    08:00 +18°C° 0 mm 1 m/S 761 mmHg 57%
    09:00 +19°C° 0 mm 1 m/S 761 mmHg 54%
    10:00 +20°C° 0 mm 1 m/S 760 mmHg 53%
    11:00 +20°C° 0 mm 2 m/S 760 mmHg 52%
    12:00 +23°C° 0 mm 2 m/S 760 mmHg 51%
    13:00 +21°C° 0.4 mm 2 m/S 759 mmHg 56%
    14:00 +21°C° 0.4 mm 3 m/S 759 mmHg 61%
    15:00 +20°C° 0.4 mm 3 m/S 758 mmHg 67%
    16:00 +18°C° 1 mm 3 m/S 758 mmHg 74%
    17:00 +17°C° 1 mm 2 m/S 757 mmHg 82%
    18:00 +15°C° 1 mm 2 m/S 757 mmHg 90%
    19:00 +15°C° 0.5 mm 2 m/S 757 mmHg 91%
    20:00 +14°C° 0.5 mm 1 m/S 756 mmHg 92%
    21:00 +14°C° 0.5 mm 1 m/S 756 mmHg 92%
    22:00 +13°C° 1.3 mm 2 m/S 756 mmHg 93%
    23:00 +12°C° 1.3 mm 3 m/S 755 mmHg 94%

    übermorgen, 3 Juni, Mittwoch

    Zeit Temperatur Niederschläge Wind Luftdruck Luftfeuchtigkeit
    00:00 +11°C° 1.3 mm 4 m/S 755 mmHg 95%
    01:00 +10°C° 2.1 mm 5 m/S 755 mmHg 95%
    02:00 +10°C° 2.1 mm 6 m/S 755 mmHg 95%
    03:00 +9°C° 2.1 mm 7 m/S 754 mmHg 95%
    04:00 +9°C° 1.1 mm 7 m/S 754 mmHg 95%
    05:00 +9°C° 1.1 mm 7 m/S 754 mmHg 94%
    06:00 +7°C° 1.1 mm 8 m/S 754 mmHg 93%
    07:00 +9°C° 0.3 mm 8 m/S 754 mmHg 93%
    08:00 +9°C° 0.3 mm 8 m/S 754 mmHg 92%
    09:00 +9°C° 0.3 mm 8 m/S 754 mmHg 91%
    10:00 +10°C° 0.1 mm 8 m/S 754 mmHg 89%
    11:00 +10°C° 0.1 mm 8 m/S 754 mmHg 87%
    12:00 +11°C° 0.1 mm 8 m/S 754 mmHg 86%
    13:00 +10°C° 0.3 mm 8 m/S 754 mmHg 87%
    14:00 +10°C° 0.3 mm 9 m/S 754 mmHg 89%
    15:00 +8°C° 0.3 mm 9 m/S 754 mmHg 91%
    16:00 +8°C° 0.2 mm 9 m/S 754 mmHg 90%
    17:00 +8°C° 0.2 mm 9 m/S 754 mmHg 89%
    18:00 +9°C° 0.2 mm 8 m/S 754 mmHg 88%
    19:00 +8°C° 0 mm 7 m/S 754 mmHg 87%
    20:00 +6°C° 0 mm 7 m/S 754 mmHg 87%
    21:00 +7°C° 0 mm 6 m/S 754 mmHg 86%
    22:00 +6°C° 0 mm 5 m/S 754 mmHg 86%
    23:00 +6°C° 0 mm 5 m/S 753 mmHg 86%

    4 Juni, Donnerstag

    Zeit Temperatur Niederschläge Wind Luftdruck Luftfeuchtigkeit
    00:00 +5°C° 0 mm 4 m/S 753 mmHg 85%
    01:00 +5°C° 0 mm 4 m/S 753 mmHg 86%
    02:00 +5°C° 0 mm 4 m/S 752 mmHg 86%
    03:00 +4°C° 0 mm 4 m/S 751 mmHg 86%
    04:00 +5°C° 0 mm 4 m/S 751 mmHg 85%
    05:00 +6°C° 0 mm 4 m/S 750 mmHg 84%
    06:00 +6°C° 0 mm 4 m/S 750 mmHg 82%
    07:00 +7°C° 0 mm 4 m/S 749 mmHg 77%
    08:00 +8°C° 0 mm 5 m/S 749 mmHg 72%
    09:00 +9°C° 0 mm 5 m/S 749 mmHg 68%
    10:00 +9°C° 0.1 mm 5 m/S 748 mmHg 70%
    11:00 +9°C° 0.1 mm 5 m/S 748 mmHg 73%
    12:00 +9°C° 0.1 mm 5 m/S 748 mmHg 76%
    13:00 +10°C° 0.1 mm 6 m/S 748 mmHg 74%
    14:00 +10°C° 0.1 mm 6 m/S 747 mmHg 71%
    15:00 +10°C° 0.1 mm 6 m/S 747 mmHg 68%
    16:00 +10°C° 0 mm 6 m/S 747 mmHg 68%
    17:00 +9°C° 0 mm 6 m/S 747 mmHg 68%
    18:00 +9°C° 0 mm 6 m/S 747 mmHg 68%
    19:00 +8°C° 0 mm 6 m/S 747 mmHg 73%
    20:00 +7°C° 0 mm 6 m/S 747 mmHg 78%
    21:00 +4°C° 0 mm 6 m/S 747 mmHg 83%
    22:00 +4°C° 0 mm 6 m/S 747 mmHg 83%
    23:00 +4°C° 0 mm 6 m/S 747 mmHg 83%

    5 Juni, Freitag

    Zeit Temperatur Niederschläge Wind Luftdruck Luftfeuchtigkeit
    00:00 +3°C° 0 mm 7 m/S 747 mmHg 84%
    01:00 +3°C° 0 mm 7 m/S 746 mmHg 84%
    02:00 +3°C° 0 mm 7 m/S 746 mmHg 84%
    03:00 +3°C° 0 mm 7 m/S 746 mmHg 85%
    04:00 +3°C° 0 mm 7 m/S 746 mmHg 82%
    05:00 +4°C° 0 mm 7 m/S 746 mmHg 79%
    06:00 +5°C° 0 mm 7 m/S 745 mmHg 76%
    07:00 +6°C° 0 mm 7 m/S 745 mmHg 71%
    08:00 +8°C° 0 mm 7 m/S 745 mmHg 66%
    09:00 +10°C° 0 mm 7 m/S 745 mmHg 61%
    10:00 +10°C° 0 mm 7 m/S 745 mmHg 60%
    11:00 +11°C° 0 mm 6 m/S 745 mmHg 59%
    12:00 +11°C° 0 mm 6 m/S 744 mmHg 58%
    13:00 +11°C° 0 mm 6 m/S 744 mmHg 59%
    14:00 +13°C° 0 mm 5 m/S 744 mmHg 59%
    15:00 +13°C° 0 mm 5 m/S 744 mmHg 60%
    16:00 +12°C° 0 mm 5 m/S 744 mmHg 63%
    17:00 +12°C° 0 mm 5 m/S 743 mmHg 67%
    18:00 +11°C° 0 mm 4 m/S 743 mmHg 71%
    19:00 +10°C° 0 mm 4 m/S 744 mmHg 74%
    20:00 +8°C° 0 mm 4 m/S 744 mmHg 77%
    21:00 +6°C° 0 mm 4 m/S 744 mmHg 81%
    22:00 +6°C° 0 mm 4 m/S 744 mmHg 81%
    23:00 +6°C° 0 mm 4 m/S 744 mmHg 82%

    6 Juni, Samstag

    Zeit Temperatur Niederschläge Wind Luftdruck Luftfeuchtigkeit
    00:00 +5°C° 0 mm 4 m/S 744 mmHg 82%
    01:00 +5°C° 0 mm 5 m/S 744 mmHg 82%
    02:00 +3°C° 0 mm 5 m/S 744 mmHg 82%
    03:00 +3°C° 0 mm 6 m/S 744 mmHg 82%
    04:00 +3°C° 0 mm 6 m/S 744 mmHg 78%
    05:00 +4°C° 0 mm 7 m/S 744 mmHg 75%
    06:00 +4°C° 0 mm 7 m/S 744 mmHg 72%
    07:00 +6°C° 0 mm 8 m/S 744 mmHg 67%
    08:00 +7°C° 0 mm 8 m/S 744 mmHg 61%
    09:00 +9°C° 0 mm 8 m/S 743 mmHg 56%
    10:00 +8°C° 0 mm 9 m/S 743 mmHg 55%
    11:00 +10°C° 0 mm 9 m/S 743 mmHg 54%
    12:00 +9°C° 0 mm 10 m/S 742 mmHg 54%
    13:00 +9°C° 0 mm 10 m/S 742 mmHg 56%
    14:00 +8°C° 0 mm 11 m/S 742 mmHg 58%
    15:00 +8°C° 0 mm 11 m/S 741 mmHg 60%
    16:00 +7°C° 0.1 mm 11 m/S 742 mmHg 67%
    17:00 +6°C° 0.1 mm 11 m/S 742 mmHg 74%
    18:00 +4°C° 0.1 mm 11 m/S 742 mmHg 81%
    19:00 +4°C° 0.1 mm 11 m/S 742 mmHg 81%
    20:00 +3°C° 0.1 mm 11 m/S 742 mmHg 80%
    21:00 +3°C° 0.1 mm 10 m/S 742 mmHg 80%
    22:00 +3°C° 0 mm 10 m/S 742 mmHg 78%
    23:00 +3°C° 0 mm 10 m/S 742 mmHg 76%
    Mehr zeigen